Location: Alexandria
(38.8050°N, 77.0470°W)
Time: 23:58:14
(UTC-04:00)

Envisat - Pass Details

Date: 09 February 2018
Orbit: 764 x 766 km, 98.2° (Epoch: 21 May)

Event Time Altitude Azimuth Distance (km) Brightness Sun altitude
Exits shadow 18:00:41 - 103° (ESE) 3,026 5.5 -4.9°
Drops below altitude 10° 18:05:11 10° 61° (ENE) 2,308 4.9 -5.7°
Maximum altitude 18:05:21 10° 60° (ENE) 2,307 4.9 -5.8°
Sets 18:10:43 0° 12° (NNE) 3,238 6.0 -6.8°
